This demonstration page uses our WeatherBlox Daily Observations layout. Learn more.

Left ArrowRight Arrow

38.80484, -77.04692

Hourly Observations for April 26, 2016

Temp ( °F °C ) Dew Point ( °F °C ) Humidity (%) Winds ( mph kmh ) Pressure ( in mb ) Visibility ( mi km ) Precip ( " mm )
12:52 am 00:52 Mostly Cloudy 69 20.6 57 13.9 66 66 S 10 17 29.79 1009 10 16 0.00 0.00
1:52 am 01:52 Mostly Cloudy 69 20.6 56 13.3 63 63 SSW 12 19 29.77 1008 10 16 0.00 0.00
2:52 am 02:52 Partly Cloudy 69 20.6 56 13.3 63 63 SSW 10 17 29.76 1008 10 16 0.00 0.00
3:52 am 03:52 Partly Cloudy 66 18.9 55 12.8 68 68 SSW 6 9 29.75 1008 10 16 0.00 0.00
4:52 am 04:52 Mostly Clear 67 19.4 56 13.3 68 68 SSW 9 15 29.75 1008 10 16 0.00 0.00
5:52 am 05:52 Mostly Clear 65 18.3 56 13.3 73 73 SSW 7 11 29.76 1008 10 16 0.00 0.00
6:52 am 06:52 Mostly Sunny 66 18.9 56 13.3 70 70 SSW 7 11 29.77 1008 10 16 0.00 0.00
7:52 am 07:52 Partly Cloudy 67 19.4 56 13.3 68 68 SSW 12 19 29.78 1008 10 16 0.00 0.00
8:52 am 08:52 Mostly Cloudy 69 20.6 57 13.9 66 66 SSW 8 13 29.78 1008 10 16 0.00 0.00
9:52 am 09:52 Mostly Cloudy 75 23.9 58 14.4 55 55 SW 13 20 29.77 1008 10 16 0.00 0.00
10:52 am 10:52 Mostly Cloudy 80 26.7 55 12.8 42 42 WSW 10 17 29.77 1008 10 16 0.00 0.00
11:52 am 11:52 Mostly Cloudy 81 27.2 55 12.8 41 41 W 14 22 29.74 1007 10 16 0.00 0.00
12:52 pm 12:52 Mostly Cloudy 81 27.2 54 12.2 39 39 WSW 16 26 29.72 1007 10 16 0.00 0.00
1:52 pm 13:52 Mostly Cloudy 83 28.3 54 12.2 37 37 WSW 17 28 29.71 1006 10 16 0.00 0.00
2:52 pm 14:52 Mostly Cloudy 85 29.4 52 11.1 32 32 W 20 31 29.70 1006 10 16 0.00 0.00
3:52 pm 15:52 Mostly Cloudy 84 28.9 51 10.6 32 32 W 18 30 29.69 1005 10 16 0.00 0.00
4:52 pm 16:52 Mostly Cloudy 85 29.4 53 11.7 33 33 W 23 37 29.69 1005 10 16 0.00 0.00
5:52 pm 17:52 Mostly Cloudy 84 28.9 55 12.8 37 37 W 15 24 29.68 1005 10 16 0.00 0.00
6:52 pm 18:52 Mostly Cloudy 83 28.3 55 12.8 38 38 W 14 22 29.70 1006 10 16 0.00 0.00
7:52 pm 19:52 Mostly Cloudy 81 27.2 55 12.8 41 41 WNW 10 17 29.70 1006 10 16 0.00 0.00
8:52 pm 20:52 Mostly Cloudy 79 26.1 56 13.3 45 45 WNW 9 15 29.71 1006 10 16 0.00 0.00
9:52 pm 21:52 Mostly Cloudy 77 25 56 13.3 48 48 WNW 7 11 29.73 1007 10 16 0.00 0.00
10:52 pm 22:52 Cloudy 76 24.4 57 13.9 52 52 SW 5 7 29.73 1007 10 16 0.00 0.00
11:52 pm 23:52 Cloudy 72 22.2 60 15.6 66 66 WSW 5 7 29.74 1007 10 16 0.00 0.00

Powered by AerisWeather